| time (UTC) | temp F | wind direction | speed MPH | gust MPH | rain 1hr in | rain 24hr in | rain mn in | humidity % | barometer mb |
| 20260506012503 | 48 | 4 | 2.0 | 7.0 | 0.18 | 0.29 | 0.29 | 57 | 1009.0 |
| 20260506012003 | 48 | 12 | 2.0 | 4.0 | 0.17 | 0.28 | 0.28 | 57 | 1008.9 |
| 20260506011503 | 48 | 20 | 1.0 | 3.0 | 0.17 | 0.27 | 0.27 | 56 | 1008.9 |
| 20260506011003 | 48 | 20 | 1.0 | 3.0 | 0.12 | 0.22 | 0.22 | 56 | 1008.9 |
| 20260506010503 | 48 | 15 | 1.0 | 3.0 | 0.07 | 0.17 | 0.17 | 57 | 1008.8 |
| 20260506010003 | 48 | 7 | 1.0 | 3.0 | 0.05 | 0.15 | 0.15 | 57 | 1008.7 |
| 20260506005503 | 48 | 7 | 1.0 | 4.0 | 0.04 | 0.14 | 0.14 | 57 | 1008.4 |
| 20260506005003 | 49 | 360 | 2.0 | 8.0 | 0.04 | 0.14 | 0.14 | 57 | 1008.5 |
| 20260506004714 | 49 | 8 | 3.0 | 8.0 | 0.04 | 0.14 | 0.14 | 56 | 1008.4 |
| 20260506004003 | 50 | 42 | 3.0 | 9.0 | 0.04 | 0.14 | 0.14 | 56 | 1008.4 |
| 20260506003503 | 51 | 35 | 1.0 | 9.0 | 0.04 | 0.14 | 0.14 | 57 | 1008.0 |
| 20260506003003 | 51 | 351 | 0.0 | 3.0 | 0.03 | 0.13 | 0.13 | 58 | 1008.4 |
| 20260506002503 | 51 | 279 | 1.0 | 4.0 | 0.01 | 0.11 | 0.11 | 58 | 1008.4 |
| 20260506002003 | 51 | 290 | 1.0 | 4.0 | 0.02 | 0.11 | 0.11 | 59 | 1008.2 |
| 20260506001503 | 51 | 309 | 1.0 | 4.0 | 0.01 | 0.10 | 0.10 | 59 | 1008.0 |
| 20260506001003 | 51 | 339 | 1.0 | 3.0 | 0.02 | 0.10 | 0.10 | 60 | 1007.9 |
| 20260506000503 | 51 | 347 | 2.0 | 4.0 | 0.02 | 0.10 | 0.10 | 60 | 1007.8 |
| 20260506000003 | 51 | 343 | 2.0 | 8.0 | 0.02 | 0.10 | 0.10 | 61 | 1007.8 |
| 20260505235503 | 52 | 343 | 4.0 | 12.0 | 0.02 | 0.10 | 0.10 | 61 | 1007.9 |
| 20260505235003 | 52 | 346 | 5.0 | 12.0 | 0.02 | 0.10 | 0.10 | 61 | 1007.7 |
| 20260505234503 | 53 | 349 | 4.0 | 11.0 | 0.02 | 0.10 | 0.10 | 61 | 1007.8 |
| 20260505234003 | 53 | 345 | 3.0 | 7.0 | 0.02 | 0.10 | 0.10 | 62 | 1007.7 |
| 20260505233503 | 53 | 309 | 2.0 | 8.0 | 0.02 | 0.10 | 0.10 | 62 | 1007.8 |
| 20260505233003 | 54 | 301 | 2.0 | 12.0 | 0.02 | 0.10 | 0.10 | 62 | 1007.8 |
| 20260505232714 | 54 | 292 | 3.0 | 13.0 | 0.02 | 0.10 | 0.10 | 62 | 1007.7 |
| 20260505232003 | 55 | 261 | 4.0 | 15.0 | 0.01 | 0.09 | 0.09 | 62 | 1007.5 |
| 20260505231503 | 56 | 257 | 6.0 | 15.0 | 0.01 | 0.09 | 0.09 | 62 | 1007.7 |
| 20260505231003 | 56 | 268 | 7.0 | 21.0 | 0.00 | 0.08 | 0.08 | 60 | 1007.4 |
| 20260505230503 | 57 | 277 | 7.0 | 21.0 | 0.00 | 0.08 | 0.08 | 59 | 1007.2 |
| 20260505230003 | 58 | 277 | 7.0 | 15.0 | 0.00 | 0.08 | 0.08 | 58 | 1007.1 |
| 20260505225503 | 58 | 273 | 6.0 | 15.0 | 0.00 | 0.08 | 0.08 | 58 | 1007.0 |
| 20260505225212 | 58 | 272 | 6.0 | 16.0 | 0.00 | 0.08 | 0.08 | 58 | 1007.0 |
| 20260505224503 | 59 | 267 | 6.0 | 16.0 | 0.00 | 0.08 | 0.08 | 57 | 1006.9 |
| 20260505224003 | 60 | 269 | 6.0 | 14.0 | 0.00 | 0.08 | 0.08 | 56 | 1006.7 |
| 20260505223503 | 60 | 268 | 6.0 | 15.0 | 0.00 | 0.08 | 0.08 | 55 | 1006.7 |
| 20260505223003 | 61 | 274 | 6.0 | 18.0 | 0.00 | 0.08 | 0.08 | 54 | 1006.6 |
| 20260505222503 | 62 | 307 | 5.0 | 18.0 | 0.00 | 0.08 | 0.08 | 54 | 1006.5 |
| 20260505222214 | 62 | 305 | 5.0 | 18.0 | 0.00 | 0.08 | 0.08 | 53 | 1006.5 |
| 20260505221503 | 62 | 268 | 3.0 | 13.0 | 0.00 | 0.08 | 0.08 | 54 | 1006.2 |
| 20260505221003 | 63 | 270 | 3.0 | 14.0 | 0.00 | 0.08 | 0.08 | 53 | 1006.0 |
| 20260505220503 | 63 | 277 | 5.0 | 14.0 | 0.00 | 0.08 | 0.08 | 53 | 1006.1 |
| 20260505220003 | 63 | 272 | 6.0 | 14.0 | 0.00 | 0.08 | 0.08 | 53 | 1006.0 |
| 20260505215503 | 64 | 271 | 4.0 | 14.0 | 0.00 | 0.08 | 0.08 | 52 | 1006.0 |
| 20260505215214 | 64 | 275 | 5.0 | 14.0 | 0.00 | 0.08 | 0.08 | 52 | 1005.9 |
| 20260505214503 | 64 | 273 | 4.0 | 14.0 | 0.00 | 0.08 | 0.08 | 51 | 1005.6 |
| 20260505214003 | 64 | 293 | 4.0 | 12.0 | 0.00 | 0.08 | 0.08 | 51 | 1005.6 |
| 20260505213503 | 65 | 290 | 5.0 | 17.0 | 0.00 | 0.08 | 0.08 | 51 | 1005.6 |
| 20260505213214 | 65 | 279 | 6.0 | 17.0 | 0.00 | 0.08 | 0.08 | 50 | 1005.5 |
| 20260505212713 | 66 | 275 | 6.0 | 17.0 | 0.00 | 0.08 | 0.08 | 49 | 1005.5 |
| 20260505212003 | 67 | 307 | 4.0 | 17.0 | 0.00 | 0.08 | 0.08 | 48 | 1005.3 |
| 20260505211503 | 67 | 329 | 3.0 | 10.0 | 0.00 | 0.08 | 0.08 | 48 | 1005.3 |
| 20260505211003 | 67 | 293 | 3.0 | 9.0 | 0.00 | 0.08 | 0.08 | 49 | 1005.1 |
| 20260505210503 | 67 | 255 | 3.0 | 9.0 | 0.00 | 0.08 | 0.08 | 47 | 1005.2 |
| 20260505210214 | 67 | 248 | 3.0 | 8.0 | 0.00 | 0.08 | 0.08 | 48 | 1005.3 |
| 20260505205503 | 67 | 249 | 4.0 | 12.0 | 0.00 | 0.08 | 0.08 | 48 | 1005.0 |
| 20260505205003 | 67 | 247 | 4.0 | 12.0 | 0.00 | 0.08 | 0.08 | 49 | 1004.9 |
| 20260505204503 | 67 | 244 | 4.0 | 12.0 | 0.00 | 0.08 | 0.08 | 49 | 1004.9 |
| 20260505204003 | 67 | 219 | 4.0 | 13.0 | 0.00 | 0.08 | 0.08 | 48 | 1004.9 |
| 20260505203503 | 67 | 190 | 4.0 | 13.0 | 0.00 | 0.08 | 0.08 | 48 | 1004.9 |
| 20260505203213 | 67 | 188 | 4.0 | 10.0 | 0.00 | 0.08 | 0.08 | 50 | 1004.9 |
| 20260505202503 | 67 | 179 | 4.0 | 13.0 | 0.01 | 0.08 | 0.08 | 50 | 1005.0 |
| 20260505202003 | 67 | 185 | 5.0 | 13.0 | 0.01 | 0.08 | 0.08 | 48 | 1005.1 |
| 20260505201503 | 67 | 201 | 4.0 | 11.0 | 0.01 | 0.08 | 0.08 | 50 | 1005.2 |
| 20260505201213 | 66 | 206 | 3.0 | 11.0 | 0.01 | 0.08 | 0.08 | 50 | 1005.3 |
| 20260505200503 | 66 | 203 | 4.0 | 12.0 | 0.01 | 0.08 | 0.08 | 51 | 1005.2 |
| 20260505200003 | 66 | 201 | 3.0 | 12.0 | 0.01 | 0.08 | 0.08 | 52 | 1005.2 |
| 20260505195503 | 65 | 218 | 2.0 | 12.0 | 0.01 | 0.08 | 0.08 | 51 | 1005.4 |
| 20260505195003 | 65 | 244 | 4.0 | 14.0 | 0.01 | 0.08 | 0.08 | 53 | 1005.3 |
| 20260505194503 | 65 | 243 | 4.0 | 14.0 | 0.01 | 0.08 | 0.08 | 52 | 1005.2 |
| 20260505194003 | 66 | 248 | 4.0 | 13.0 | 0.01 | 0.08 | 0.08 | 51 | 1005.3 |
| 20260505193714 | 66 | 256 | 5.0 | 13.0 | 0.01 | 0.08 | 0.08 | 50 | 1005.3 |
| 20260505193003 | 67 | 257 | 6.0 | 17.0 | 0.01 | 0.08 | 0.08 | 46 | 1005.1 |
| 20260505192503 | 68 | 253 | 5.0 | 12.0 | 0.00 | 0.07 | 0.07 | 43 | 1005.0 |
| 20260505192003 | 68 | 246 | 5.0 | 17.0 | 0.00 | 0.07 | 0.07 | 43 | 1005.0 |
| 20260505191503 | 69 | 254 | 5.0 | 19.0 | 0.00 | 0.07 | 0.07 | 43 | 1005.0 |
| 20260505191003 | 69 | 237 | 4.0 | 19.0 | 0.00 | 0.07 | 0.07 | 42 | 1004.9 |
| 20260505190503 | 70 | 206 | 5.0 | 11.0 | 0.00 | 0.07 | 0.07 | 42 | 1004.8 |
| 20260505190213 | 70 | 216 | 5.0 | 13.0 | 0.00 | 0.07 | 0.07 | 42 | 1004.8 |
| 20260505185503 | 71 | 208 | 4.0 | 13.0 | 0.00 | 0.07 | 0.07 | 42 | 1004.6 |
| 20260505185003 | 71 | 203 | 4.0 | 13.0 | 0.00 | 0.07 | 0.07 | 44 | 1004.6 |
| 20260505184503 | 71 | 203 | 5.0 | 14.0 | 0.00 | 0.07 | 0.07 | 48 | 1004.6 |
| 20260505184213 | 70 | 199 | 5.0 | 14.0 | 0.00 | 0.07 | 0.07 | 45 | 1004.6 |
| 20260505183714 | 70 | 198 | 5.0 | 14.0 | 0.00 | 0.07 | 0.07 | 45 | 1004.7 |
| 20260505183003 | 68 | 217 | 5.0 | 12.0 | 0.00 | 0.07 | 0.07 | 49 | 1004.9 |
| 20260505182503 | 68 | 218 | 5.0 | 17.0 | 0.00 | 0.07 | 0.07 | 47 | 1004.9 |
| 20260505182003 | 68 | 207 | 7.0 | 20.0 | 0.00 | 0.07 | 0.07 | 46 | 1004.9 |
| 20260505181503 | 68 | 190 | 8.0 | 20.0 | 0.00 | 0.07 | 0.07 | 47 | 1004.9 |
| 20260505181003 | 69 | 184 | 8.0 | 16.0 | 0.00 | 0.07 | 0.07 | 46 | 1004.9 |
| 20260505180503 | 68 | 183 | 7.0 | 18.0 | 0.00 | 0.07 | 0.07 | 52 | 1004.8 |
| 20260505180003 | 68 | 185 | 6.0 | 18.0 | 0.00 | 0.07 | 0.07 | 51 | 1004.7 |
| 20260505175503 | 67 | 191 | 7.0 | 16.0 | 0.00 | 0.07 | 0.07 | 50 | 1004.7 |
| 20260505175003 | 67 | 192 | 8.0 | 19.0 | 0.01 | 0.07 | 0.07 | 53 | 1004.6 |
| 20260505174503 | 66 | 178 | 8.0 | 19.0 | 0.01 | 0.07 | 0.07 | 52 | 1004.6 |
| 20260505174003 | 65 | 165 | 7.0 | 18.0 | 0.01 | 0.07 | 0.07 | 54 | 1004.7 |
| 20260505173713 | 65 | 152 | 7.0 | 17.0 | 0.01 | 0.07 | 0.07 | 57 | 1004.9 |
| 20260505173003 | 63 | 133 | 8.0 | 14.0 | 0.01 | 0.07 | 0.07 | 59 | 1004.8 |
| 20260505172503 | 62 | 150 | 7.0 | 14.0 | 0.01 | 0.07 | 0.07 | 59 | 1004.8 |
| 20260505172003 | 62 | 185 | 7.0 | 15.0 | 0.01 | 0.07 | 0.07 | 57 | 1005.0 |
| 20260505171503 | 62 | 196 | 7.0 | 15.0 | 0.01 | 0.07 | 0.07 | 57 | 1005.1 |
| 20260505171003 | 62 | 198 | 7.0 | 15.0 | 0.01 | 0.07 | 0.07 | 56 | 1005.1 |
| 20260505170503 | 62 | 210 | 8.0 | 19.0 | 0.01 | 0.07 | 0.07 | 55 | 1005.2 |
| 20260505170214 | 63 | 223 | 8.0 | 19.0 | 0.01 | 0.07 | 0.07 | 55 | 1005.1 |
| 20260505165713 | 64 | 236 | 9.0 | 20.0 | 0.01 | 0.07 | 0.07 | 53 | 1004.9 |
| 20260505165003 | 66 | 218 | 9.0 | 24.0 | 0.00 | 0.06 | 0.06 | 46 | 1004.7 |
| 20260505164503 | 68 | 205 | 10.0 | 27.0 | 0.00 | 0.06 | 0.06 | 43 | 1004.5 |
| 20260505164003 | 68 | 200 | 10.0 | 27.0 | 0.00 | 0.06 | 0.06 | 42 | 1004.5 |
| 20260505163713 | 68 | 198 | 10.0 | 27.0 | 0.00 | 0.06 | 0.06 | 41 | 1004.4 |
| 20260505163003 | 68 | 210 | 8.0 | 20.0 | 0.00 | 0.06 | 0.06 | 41 | 1004.4 |
| 20260505162713 | 68 | 220 | 7.0 | 16.0 | 0.00 | 0.06 | 0.06 | 42 | 1004.5 |
| 20260505162214 | 68 | 215 | 6.0 | 17.0 | 0.00 | 0.06 | 0.06 | 42 | 1004.6 |
| 20260505161503 | 68 | 205 | 10.0 | 24.0 | 0.00 | 0.06 | 0.06 | 41 | 1004.4 |
| 20260505161003 | 69 | 200 | 12.0 | 31.0 | 0.00 | 0.06 | 0.06 | 40 | 1004.4 |
| 20260505160503 | 69 | 198 | 12.0 | 31.0 | 0.00 | 0.06 | 0.06 | 39 | 1004.0 |
| 20260505153003 | 70 | 188 | 8.0 | 23.0 | 0.00 | 0.06 | 0.06 | 43 | 1003.6 |
| 20260505152503 | 70 | 196 | 8.0 | 17.0 | 0.00 | 0.06 | 0.06 | 44 | 1003.7 |
| 20260505152003 | 69 | 198 | 9.0 | 23.0 | 0.00 | 0.06 | 0.06 | 43 | 1003.8 |
| 20260505151712 | 69 | 197 | 11.0 | 23.0 | 0.00 | 0.06 | 0.06 | 42 | 1003.8 |
| 20260505151003 | 69 | 199 | 10.0 | 23.0 | 0.00 | 0.06 | 0.06 | 43 | 1004.0 |
| 20260505150503 | 69 | 198 | 9.0 | 21.0 | 0.00 | 0.06 | 0.06 | 45 | 1003.8 |
| 20260505140503 | 67 | 204 | 12.0 | 25.0 | 0.00 | 0.06 | 0.06 | 47 | 1003.7 |
| 20260505125003 | 65 | 187 | 8.0 | 20.0 | 0.00 | 0.06 | 0.06 | 48 | 1003.5 |
| 20260505124503 | 65 | 185 | 8.0 | 20.0 | 0.00 | 0.06 | 0.06 | 48 | 1003.6 |
| 20260505124212 | 65 | 189 | 9.0 | 20.0 | 0.00 | 0.06 | 0.06 | 48 | 1003.4 |
| 20260505123503 | 66 | 189 | 9.0 | 21.0 | 0.00 | 0.06 | 0.06 | 48 | 1003.4 |
| 20260505123003 | 65 | 186 | 9.0 | 21.0 | 0.00 | 0.06 | 0.06 | 48 | 1003.2 |
| 20260505122503 | 65 | 186 | 10.0 | 25.0 | 0.00 | 0.06 | 0.06 | 50 | 1003.4 |
| 20260505122003 | 64 | 192 | 10.0 | 25.0 | 0.00 | 0.06 | 0.06 | 49 | 1003.5 |
| 20260505121503 | 64 | 187 | 9.0 | 18.0 | 0.00 | 0.06 | 0.06 | 49 | 1003.4 |
| 20260505121003 | 64 | 177 | 8.0 | 17.0 | 0.00 | 0.06 | 0.06 | 49 | 1003.4 |
| 20260505120713 | 64 | 182 | 8.0 | 17.0 | 0.00 | 0.06 | 0.06 | 50 | 1003.4 |
| 20260505120003 | 64 | 170 | 11.0 | 23.0 | 0.00 | 0.06 | 0.06 | 51 | 1003.5 |
| 20260505115713 | 64 | 173 | 11.0 | 23.0 | 0.00 | 0.06 | 0.06 | 52 | 1003.6 |
| 20260505115003 | 63 | 177 | 10.0 | 21.0 | 0.00 | 0.06 | 0.06 | 51 | 1003.7 |
| 20260505114503 | 62 | 175 | 9.0 | 19.0 | 0.00 | 0.06 | 0.06 | 51 | 1003.6 |
| 20260505114003 | 62 | 179 | 8.0 | 19.0 | 0.00 | 0.06 | 0.06 | 52 | 1003.6 |
| 20260505113503 | 62 | 173 | 8.0 | 17.0 | 0.00 | 0.06 | 0.06 | 53 | 1003.4 |
| 20260505113003 | 62 | 167 | 8.0 | 15.0 | 0.00 | 0.06 | 0.06 | 53 | 1003.4 |
| 20260505112503 | 61 | 169 | 8.0 | 14.0 | 0.00 | 0.06 | 0.06 | 53 | 1003.4 |
| 20260505112003 | 61 | 174 | 8.0 | 18.0 | 0.00 | 0.06 | 0.06 | 54 | 1003.4 |
| 20260505111713 | 61 | 174 | 8.0 | 18.0 | 0.00 | 0.06 | 0.06 | 54 | 1003.4 |
| 20260505111003 | 60 | 169 | 7.0 | 14.0 | 0.00 | 0.06 | 0.06 | 54 | 1003.5 |
| 20260505110503 | 60 | 172 | 7.0 | 18.0 | 0.00 | 0.06 | 0.06 | 54 | 1003.2 |
| 20260505102214 | 59 | 184 | 5.0 | 15.0 | 0.00 | 0.06 | 0.06 | 55 | 1003.1 |
| 20260505101503 | 59 | 185 | 5.0 | 10.0 | 0.00 | 0.06 | 0.06 | 55 | 1003.1 |
| 20260505101003 | 59 | 180 | 6.0 | 12.0 | 0.00 | 0.06 | 0.06 | 55 | 1003.1 |
| 20260505100503 | 59 | 177 | 5.0 | 12.0 | 0.00 | 0.06 | 0.06 | 55 | 1003.0 |
| 20260505100003 | 59 | 178 | 4.0 | 10.0 | 0.00 | 0.06 | 0.06 | 55 | 1003.0 |
| 20260505095503 | 59 | 169 | 3.0 | 10.0 | 0.00 | 0.06 | 0.06 | 55 | 1003.0 |
| 20260505095213 | 59 | 169 | 4.0 | 9.0 | 0.00 | 0.06 | 0.06 | 55 | 1003.0 |
| 20260505094503 | 59 | 179 | 4.0 | 11.0 | 0.00 | 0.06 | 0.06 | 55 | 1002.9 |
| 20260505094003 | 58 | 181 | 3.0 | 8.0 | 0.00 | 0.06 | 0.06 | 55 | 1002.9 |
| 20260505093503 | 58 | 172 | 3.0 | 7.0 | 0.00 | 0.06 | 0.06 | 56 | 1002.9 |
| 20260505093003 | 58 | 159 | 3.0 | 8.0 | 0.00 | 0.06 | 0.06 | 57 | 1002.9 |
| 20260505092503 | 58 | 154 | 3.0 | 8.0 | 0.00 | 0.06 | 0.06 | 57 | 1002.9 |
| 20260505092003 | 59 | 157 | 3.0 | 7.0 | 0.00 | 0.06 | 0.06 | 56 | 1002.8 |
| 20260505091712 | 59 | 168 | 3.0 | 7.0 | 0.00 | 0.06 | 0.06 | 55 | 1002.9 |
| 20260505091003 | 59 | 189 | 6.0 | 16.0 | 0.00 | 0.06 | 0.06 | 55 | 1003.0 |
| 20260505090503 | 59 | 191 | 6.0 | 17.0 | 0.00 | 0.06 | 0.06 | 55 | 1003.1 |
| 20260505090003 | 60 | 178 | 6.0 | 17.0 | 0.00 | 0.06 | 0.06 | 55 | 1003.4 |
| 20260505085503 | 59 | 167 | 6.0 | 13.0 | 0.00 | 0.06 | 0.06 | 54 | 1003.2 |
| 20260505085003 | 59 | 167 | 5.0 | 10.0 | 0.00 | 0.06 | 0.06 | 55 | 1003.4 |
| 20260505084503 | 58 | 172 | 5.0 | 10.0 | 0.00 | 0.06 | 0.06 | 55 | 1003.4 |
| 20260505084003 | 58 | 172 | 5.0 | 10.0 | 0.01 | 0.06 | 0.06 | 55 | 1003.3 |
| 20260505083503 | 58 | 169 | 4.0 | 10.0 | 0.01 | 0.06 | 0.06 | 55 | 1003.3 |
| 20260505083003 | 57 | 168 | 3.0 | 9.0 | 0.01 | 0.06 | 0.06 | 55 | 1003.3 |
| 20260505082503 | 57 | 166 | 2.0 | 9.0 | 0.01 | 0.06 | 0.06 | 55 | 1003.3 |
| 20260505082003 | 57 | 185 | 2.0 | 5.0 | 0.01 | 0.06 | 0.06 | 56 | 1003.2 |
| 20260505081503 | 57 | 193 | 2.0 | 5.0 | 0.01 | 0.06 | 0.06 | 56 | 1003.2 |
| 20260505081003 | 57 | 192 | 1.0 | 4.0 | 0.01 | 0.06 | 0.06 | 56 | 1003.3 |
| 20260505080503 | 57 | 199 | 1.0 | 6.0 | 0.01 | 0.06 | 0.06 | 56 | 1003.3 |
| 20260505080003 | 57 | 210 | 2.0 | 6.0 | 0.01 | 0.06 | 0.06 | 56 | 1003.2 |
| 20260505075503 | 56 | 209 | 2.0 | 7.0 | 0.01 | 0.06 | 0.06 | 57 | 1003.1 |
| 20260505075003 | 56 | 203 | 1.0 | 7.0 | 0.01 | 0.06 | 0.06 | 57 | 1003.1 |
| 20260505074503 | 56 | 196 | 1.0 | 7.0 | 0.01 | 0.06 | 0.06 | 58 | 1003.2 |
| 20260505074003 | 56 | 230 | 2.0 | 5.0 | 0.00 | 0.05 | 0.05 | 58 | 1003.1 |
| 20260505073503 | 56 | 235 | 2.0 | 6.0 | 0.01 | 0.05 | 0.05 | 58 | 1003.2 |
| 20260505073003 | 56 | 232 | 2.0 | 6.0 | 0.01 | 0.05 | 0.05 | 58 | 1003.1 |
| 20260505072714 | 56 | 233 | 2.0 | 7.0 | 0.01 | 0.05 | 0.05 | 59 | 1003.2 |
| 20260505072003 | 56 | 204 | 2.0 | 7.0 | 0.01 | 0.05 | 0.05 | 58 | 1003.1 |
| 20260505071503 | 57 | 194 | 1.0 | 5.0 | 0.01 | 0.05 | 0.05 | 58 | 1003.1 |
| 20260505071003 | 57 | 183 | 2.0 | 4.0 | 0.01 | 0.05 | 0.05 | 58 | 1003.2 |
| 20260505070503 | 57 | 193 | 3.0 | 9.0 | 0.01 | 0.05 | 0.05 | 58 | 1003.4 |
| 20260505070003 | 57 | 194 | 3.0 | 9.0 | 0.01 | 0.05 | 0.05 | 57 | 1003.4 |
| 20260505065503 | 58 | 196 | 3.0 | 8.0 | 0.01 | 0.05 | 0.05 | 56 | 1003.5 |
| 20260505065003 | 58 | 195 | 4.0 | 9.0 | 0.01 | 0.05 | 0.05 | 56 | 1003.8 |
| 20260505064503 | 58 | 191 | 6.0 | 17.0 | 0.01 | 0.05 | 0.05 | 56 | 1003.7 |
| 20260505064003 | 58 | 194 | 8.0 | 17.0 | 0.01 | 0.05 | 0.05 | 55 | 1003.6 |
| 20260505063503 | 58 | 185 | 6.0 | 16.0 | 0.00 | 0.04 | 0.04 | 56 | 1003.8 |
| 20260505063003 | 57 | 172 | 3.0 | 11.0 | 0.00 | 0.04 | 0.04 | 56 | 1003.7 |
| 20260505062503 | 56 | 185 | 2.0 | 6.0 | 0.00 | 0.04 | 0.04 | 56 | 1003.7 |
| 20260505062003 | 56 | 182 | 2.0 | 5.0 | 0.00 | 0.04 | 0.04 | 56 | 1003.6 |
| 20260505061503 | 56 | 175 | 2.0 | 6.0 | 0.00 | 0.04 | 0.04 | 56 | 1003.6 |
| 20260505061003 | 56 | 184 | 2.0 | 6.0 | 0.00 | 0.04 | 0.04 | 56 | 1003.7 |
| 20260505060503 | 56 | 200 | 2.0 | 4.0 | 0.00 | 0.04 | 0.04 | 57 | 1003.7 |
| 20260505060003 | 56 | 210 | 2.0 | 6.0 | 0.00 | 0.04 | 0.04 | 57 | 1003.7 |
| 20260505055503 | 56 | 211 | 3.0 | 6.0 | 0.00 | 0.04 | 0.04 | 57 | 1003.7 |
| 20260505055003 | 56 | 218 | 2.0 | 6.0 | 0.00 | 0.04 | 0.04 | 57 | 1003.7 |
| 20260505054503 | 56 | 216 | 2.0 | 5.0 | 0.00 | 0.04 | 0.04 | 57 | 1003.7 |
| 20260505054003 | 56 | 205 | 4.0 | 9.0 | 0.00 | 0.04 | 0.04 | 57 | 1003.7 |
| 20260505053503 | 56 | 205 | 5.0 | 9.0 | 0.00 | 0.04 | 0.04 | 57 | 1003.8 |
| 20260505053003 | 56 | 205 | 4.0 | 9.0 | 0.00 | 0.04 | 0.04 | 57 | 1003.9 |
| 20260505052503 | 56 | 205 | 5.0 | 9.0 | 0.00 | 0.04 | 0.04 | 58 | 1003.7 |
| 20260505052003 | 56 | 208 | 6.0 | 12.0 | 0.00 | 0.04 | 0.04 | 58 | 1003.8 |
| 20260505051503 | 56 | 213 | 5.0 | 12.0 | 0.01 | 0.04 | 0.04 | 58 | 1003.8 |
| 20260505051003 | 56 | 219 | 4.0 | 10.0 | 0.03 | 0.04 | 0.04 | 59 | 1003.7 |
| 20260505050503 | 55 | 226 | 4.0 | 10.0 | 0.04 | 0.04 | 0.04 | 59 | 1003.8 |
| 20260505041503 | 59 | 202 | 10.0 | 28.0 | 0.03 | 0.03 | 0.03 | 58 | 1004.9 |
| 20260505041213 | 60 | 203 | 11.0 | 28.0 | 0.02 | 0.02 | 0.02 | 57 | 1004.9 |
| 20260505040503 | 63 | 197 | 10.0 | 23.0 | 0.00 | 0.00 | 0.00 | 47 | 1004.7 |
| 20260505040004 | 64 | 191 | 8.0 | 17.0 | 0.00 | 0.00 | 0.00 | 43 | 1004.5 |
| 20260505035503 | 64 | 188 | 6.0 | 16.0 | 0.00 | 0.00 | 0.00 | 41 | 1004.3 |
| 20260505035003 | 64 | 183 | 7.0 | 18.0 | 0.00 | 0.00 | 0.00 | 40 | 1004.1 |
| 20260505034712 | 64 | 181 | 6.0 | 18.0 | 0.00 | 0.00 | 0.00 | 40 | 1004.2 |
| 20260505034003 | 64 | 179 | 4.0 | 16.0 | 0.00 | 0.00 | 0.00 | 39 | 1004.0 |
| 20260505033503 | 64 | 176 | 4.0 | 12.0 | 0.00 | 0.00 | 0.00 | 39 | 1004.1 |
| 20260505033003 | 64 | 178 | 5.0 | 12.0 | 0.00 | 0.00 | 0.00 | 39 | 1004.0 |
| 20260505032503 | 64 | 179 | 5.0 | 11.0 | 0.00 | 0.00 | 0.00 | 38 | 1004.0 |
| 20260505032003 | 64 | 176 | 6.0 | 14.0 | 0.00 | 0.00 | 0.00 | 38 | 1003.9 |
| 20260505031503 | 64 | 175 | 6.0 | 14.0 | 0.00 | 0.00 | 0.00 | 38 | 1004.0 |
| 20260505031003 | 63 | 181 | 6.0 | 14.0 | 0.00 | 0.00 | 0.00 | 38 | 1004.0 |
| 20260505030503 | 63 | 190 | 6.0 | 11.0 | 0.00 | 0.00 | 0.00 | 37 | 1003.9 |
| 20260505030003 | 63 | 191 | 6.0 | 14.0 | 0.00 | 0.00 | 0.00 | 37 | 1003.9 |
| 20260505025503 | 63 | 186 | 5.0 | 14.0 | 0.00 | 0.00 | 0.00 | 36 | 1004.0 |
| 20260505025004 | 63 | 190 | 5.0 | 10.0 | 0.00 | 0.00 | 0.00 | 36 | 1004.0 |
| 20260505024503 | 63 | 190 | 5.0 | 10.0 | 0.00 | 0.00 | 0.00 | 36 | 1003.9 |
| 20260505024213 | 63 | 190 | 4.0 | 10.0 | 0.00 | 0.00 | 0.00 | 36 | 1004.0 |
| 20260505023714 | 63 | 184 | 5.0 | 11.0 | 0.00 | 0.00 | 0.00 | 36 | 1004.0 |
| 20260505023213 | 63 | 190 | 5.0 | 11.0 | 0.00 | 0.00 | 0.00 | 36 | 1004.0 |
| 20260505022503 | 63 | 196 | 3.0 | 9.0 | 0.00 | 0.00 | 0.00 | 36 | 1004.1 |
| 20260505022003 | 62 | 197 | 3.0 | 7.0 | 0.00 | 0.00 | 0.00 | 35 | 1004.1 |
| 20260505021503 | 62 | 195 | 4.0 | 11.0 | 0.00 | 0.00 | 0.00 | 36 | 1004.3 |
| 20260505021003 | 62 | 193 | 4.0 | 11.0 | 0.00 | 0.00 | 0.00 | 35 | 1004.3 |
| 20260505020503 | 62 | 193 | 3.0 | 7.0 | 0.00 | 0.00 | 0.00 | 35 | 1004.3 |
| 20260505020003 | 62 | 194 | 2.0 | 6.0 | 0.00 | 0.00 | 0.00 | 35 | 1004.3 |
| 20260505015503 | 62 | 202 | 2.0 | 6.0 | 0.00 | 0.00 | 0.00 | 34 | 1004.4 |
| 20260505015003 | 63 | 201 | 2.0 | 6.0 | 0.00 | 0.00 | 0.00 | 34 | 1004.3 |
| 20260505014503 | 63 | 199 | 3.0 | 6.0 | 0.00 | 0.00 | 0.00 | 33 | 1004.4 |
| 20260505014003 | 64 | 201 | 3.0 | 7.0 | 0.00 | 0.00 | 0.00 | 32 | 1004.3 |
| 20260505013713 | 64 | 199 | 3.0 | 7.0 | 0.00 | 0.00 | 0.00 | 32 | 1004.3 |
| 20260505013003 | 65 | 191 | 4.0 | 9.0 | 0.00 | 0.00 | 0.00 | 30 | 1004.3 |